Location: Newark
(47.5000°N, 4.6167°E)
Time: 11:11:20
(UTC+00:00)

ISS - Pass Details

Date: 02 December 2021
Orbit: 413 x 422 km, 51.6° (Epoch: 19 January)

Event Time Altitude Azimuth Distance (km) Brightness Sun altitude
Rises 16:50:05 0° 288° (WNW) 2,383 0.9 -9.5°
Reaches altitude 10° 16:52:16 10° 295° (WNW) 1,516 -0.3 -9.9°
Maximum altitude 16:55:32 43° 9° (N) 609 -3.2 -10.4°
Enters shadow 16:57:54 17° 76° (ENE) 1,175 -2.1 -10.7°
